Regional Weather Roundup
Issued by NWS

Home | Current Version | Previous Version | Graphics & Text | Print | Product List | Glossary Off
Versions: 1 2 3 4 5 6 7 8 9 10 11 12 13 14 15 16 17 18 19 20 21 22 23 24 25 26 27 28 29 30 31 32 33 34 35 36 37 38 39 40 41 42 43 44 45 46 47 48 49 50

000
ASUS43 KTOP 230659
RWRKS

WEATHER ROUNDUP FOR KANSAS
NATIONAL WEATHER SERVICE GOODLAND KS
200 AM CDT WED JUL 23 2014

NOTE:  "FAIR" INDICATES FEW OR NO CLOUDS BELOW 12,000 FEET WITH NO
SIGNIFICANT WEATHER AND/OR OBSTRUCTIONS TO VISIBILITY.

KSZ001>006-013>018-027>032-041>047-230800-
NORTHWEST KANSAS

CITY           SKY/WX    TMP DP  RH WIND       PRES   REMARKS
GOODLAND       CLEAR     72  68  87 E10       30.29R
HAYS           PTCLDY    77  66  69 NE12      30.19R
HILL CITY      CLEAR     76  68  76 NE9       30.22R
RUSSELL        PTCLDY    79  72  79 NE12      30.17R
$$

KSZ061>065-074>080-084>089-230800-
SOUTHWEST KANSAS

CITY           SKY/WX    TMP DP  RH WIND       PRES   REMARKS
DODGE CITY     CLEAR     72  61  68 SW6       30.19R
ELKHART          N/A     72  64  76 SW6         N/A
GARDEN CITY    PTCLDY    73  63  70 S6        30.21R
GREAT BEND     CLEAR     75  66  73 N10       30.15R
LIBERAL        CLEAR     73  64  73 S6        30.22S
PRATT          CLEAR     72  68  88 SW6       30.17R
$$

KSZ066>073-081>083-090>101-230800-
SOUTHEAST KANSAS

CITY           SKY/WX    TMP DP  RH WIND       PRES   REMARKS
CHANUTE        CLEAR     77  74  90 CALM      30.08R
COFFEYVILLE    CLEAR     78  75  90 SW3       30.06S
HUTCHINSON     PTCLDY    75  68  78 CALM      30.12S
MEDICINE LODGE   N/A     76  72  87 NE3       30.12S
NEWTON         PTCLDY    81  68  65 SW9       30.15R
PARSONS        CLEAR     76  73  91 CALM      30.08S FOG
WICHITA INTL   PTCLDY    76  72  87 SW6       30.11R
WICHITA JABRA  PTCLDY    83  73  72 SW9       30.11R
WINFIELD       CLEAR     79  75  87 SW3       30.11S
$$

KSZ007>012-019>026-033>040-048>060-102>105-230800-
NORTHEAST KANSAS

CITY           SKY/WX    TMP DP  RH WIND       PRES   REMARKS
CONCORDIA      CLEAR     76  69  79 NE8       30.18R
EMPORIA        CLEAR     79  75  87 N7        30.11R
LAWRENCE       CLEAR     81  72  74 NE7       30.10R
MANHATTAN      MOCLDY    80  72  76 NE14      30.14R
OLATHE IND     CLEAR     81  78  91 N9        30.10R
OLATHE EXE     MOCLDY    82  76  81 NE12      30.09R
SALINA         PTCLDY    84  75  74 NE13      30.14R
TOPEKA BILLARD CLOUDY    82  74  76 NE7       30.11R
TOPEKA FORBES  CLEAR     81  72  74 NE10      30.11R
$$


USA.gov is the U.S. government's official web portal to all federal, state and local government web resources and services.